User: anonymous   Login
Location: Cutler
(25.6150°N, 80.3110°W)
Time: 16:41:05
(UTC-05:00)
Language:

Cosmos 2360 Rocket - Orbit

View from above orbital plane
View from above orbital plane
View from above satellite
View from above satellite

Ground track
Ground track

The orbit data is extracted from the following two-line orbital elements,

1 25407U 98045B   14354.91384360 -.00000177  00000-0 -66130-4 0  6427
2 25407 071.0114 152.1348 0006660 170.1905 351.9483 14.15689411847494
Epoch (UTC): 20 December 2014 21:55:56
Eccentricity: 0.0006660
inclination: 71.0114°
perigee height: 835 km
apogee height: 845 km
right ascension of ascending node: 152.1348°
argument of perigee: 170.1905°
revolutions per day: 14.15689411
mean anomaly at epoch: 351.9483°
orbit number at epoch: 84749

The dashed part of the orbit path shows where the satellite is in the earth's shadow,  

DLR